Location: Sungai Anya
(2.6167°N, 114.0500°E)
Time: 15:48:52
(UTC+00:00)

Cosmos 1153 Rocket - Pass Details

Date: 03 June 2022
Orbit: 954 x 1005 km, 82.9° (Epoch: 03 July)

Event Time Altitude Azimuth Distance (km) Brightness Sun altitude
Rises 21:39:52 0° 348° (NNW) 3,718 7.7 -8.7°
Reaches altitude 10° 21:42:27 10° 343° (NNW) 2,770 7.0 -8.1°
Maximum altitude 21:48:38 54° 267° (W) 1,196 4.7 -6.7°
Drops below altitude 10° 21:54:48 10° 191° (S) 2,761 6.6 -5.3°
Sets 21:57:23 0° 186° (S) 3,705 7.2 -4.7°
